[[{"header":{"parameterUnit":"m.s-1","parameterCategory":1,"la1":30.2992,"la2":30.254,"lo1":-89.0895,"lo2":-89.0443,"dy":0.0025,"dx":0.0025,"nx":19,"ny":19,"refTime":"2026-04-09T03:00:00:Z","depth":0,"parameterNumber":2,"parameterNumberName":"U-component_of_WINDS"},"data":[0,0,0,-6.5566,-6.5574,-6.5985,-6.5986,-6.6519,-6.6524,0,0,0,0,0,0,0,0,0,0,0,-6.5448,-6.5452,-6.5565,-6.5575,-6.5985,-6.5986,-6.6518,-6.6524,0,0,0,0,0,0,0,0,0,0,0,-6.5446,-6.5451,-6.5455,-6.5577,-6.5984,-6.5987,-6.6517,-6.6205,0,0,0,0,0,0,0,0,0,0,-6.5806,-6.5701,-6.545,-6.5456,-6.5579,-6.5984,-6.5987,-6.619,-6.6225,-6.6337,0,-6.6436,0,-6.6488,-6.656,-6.6562,0,0,0,-6.5574,-6.5672,-6.5779,-6.5456,-6.5583,-6.5983,-6.5799,-6.621,-6.6249,-6.6383,-6.6443,-6.6463,-6.6497,-6.6564,-6.6566,-6.7212,-6.7214,0,0,-6.5551,-6.5525,-6.5752,-6.5804,-6.5739,-6.5786,-6.5812,-6.6233,-6.6298,-6.6445,-6.6475,-6.6506,-6.6567,-6.6571,-6.7209,-6.7212,0,0,0,-6.5487,-6.5509,-6.5605,-6.5782,-6.5855,-6.5798,-6.5828,-6.628,-6.6313,-6.6481,-6.6512,-6.657,-6.6577,-6.7205,-6.721,-6.7336,0,0,0,-6.5473,-6.5472,-6.5595,-6.5584,-6.5848,-6.6072,-6.5865,-6.6284,-6.6332,-6.6509,-6.6571,-6.6582,-6.7202,-6.7208,-6.7325,-6.7401,0,0,0,-6.542,-6.5465,-6.5526,-6.5581,-6.5756,-6.6066,-6.6124,-6.6295,-6.6352,-6.6563,-6.6584,-6.72,-6.7207,-6.7316,-6.7385,-6.7561,0,0,0,-6.5357,-6.5635,-6.5527,-6.585,-6.5753,-6.614,-6.6121,-6.6412,-6.6608,-6.6573,-6.7202,-6.721,-6.7313,-6.7375,-6.7551,-6.7704,-6.7765,0,0,-6.5693,-6.5675,-6.5866,-6.5782,-6.6181,-6.608,-6.6499,-6.6705,-6.6751,-6.7056,-6.7072,-6.7329,-6.7384,-6.7559,-6.812,-6.8168,0,0,0,-6.5964,-6.6102,-6.6213,-6.6396,-6.6558,-6.6703,-6.6847,-6.6923,-6.7182,-6.6901,-6.7441,-6.7475,-6.7579,-6.7653,-6.7695,-6.7785,-6.7243,-6.7242,-6.7241,-6.6405,-6.6444,-6.6763,-6.6852,-6.7031,-6.7174,-6.7323,-6.745,-6.7442,-6.7568,-6.7659,-6.7994,-6.808,-6.8111,-6.8205,-6.7743,-6.7744,-6.7744,-6.7745,-6.69,-6.71,-6.7078,-6.7379,-6.742,-6.7675,-6.7824,-6.7808,-6.8052,-6.793,-6.8023,-6.7885,-6.8163,-6.8247,-6.7755,-6.7753,-6.7752,-6.7751,-6.775,-6.7193,-6.7295,-6.738,-6.7647,-6.7849,-6.793,-6.8163,-6.8193,-6.8224,-6.8316,-6.8414,-6.8412,-6.8413,-6.836,-6.8362,-6.8363,-6.8364,-6.8365,-6.8365,-6.7462,-6.7554,-6.7745,-6.7937,-6.8057,-6.8219,-6.8364,-6.8484,-6.8625,-6.8628,-6.8629,-6.8607,-6.8183,-6.8075,-6.8384,-6.8381,-6.8378,-6.8376,-6.8375,-6.7949,-6.7843,-6.8139,-6.8259,-6.8485,-6.8682,-6.8716,-6.8957,-6.9061,-6.9175,-6.9132,-6.8814,-6.8798,-6.8765,-6.8676,-6.9123,-6.9123,-6.9123,-6.9123,-6.8195,-6.8188,-6.8496,-6.8685,-6.8874,-6.8933,-6.9267,-6.9382,-6.9485,-6.9552,-6.9491,-6.9376,-6.9341,-6.9346,-6.9301,-6.9218,-6.9793,-6.9793,-6.9794,-6.8496,-6.8509,-6.8786,-6.8881,-6.906,-6.9213,-6.9527,-6.9746,-6.9841,-6.9822,-6.9604,-6.9576,-6.939,-6.9327,-6.9303,-6.9232,-6.9081,0,0]},{"header":{"parameterUnit":"m.s-1","parameterCategory":1,"la1":30.2992,"la2":30.254,"lo1":-89.0895,"lo2":-89.0443,"dy":0.0025,"dx":0.0025,"nx":19,"ny":19,"refTime":"2026-04-09T03:00:00:Z","depth":0,"parameterNumber":3,"parameterNumberName":"V-component_of_WINDS"},"data":[0,0,0,-0.4732,-0.4732,-0.4705,-0.4705,-0.4676,-0.4676,0,0,0,0,0,0,0,0,0,0,0,-0.4744,-0.4744,-0.4732,-0.4732,-0.4705,-0.4705,-0.4676,-0.4676,0,0,0,0,0,0,0,0,0,0,0,-0.4744,-0.4744,-0.4744,-0.4732,-0.4705,-0.4705,-0.4676,-0.4695,0,0,0,0,0,0,0,0,0,0,-0.472,-0.4734,-0.4744,-0.4744,-0.4732,-0.4705,-0.4705,-0.4695,-0.4693,-0.4691,0,-0.469,0,-0.4683,-0.4675,-0.4675,0,0,0,-0.4729,-0.4735,-0.4725,-0.4744,-0.4731,-0.4705,-0.4716,-0.4694,-0.4692,-0.4689,-0.4689,-0.4688,-0.4682,-0.4675,-0.4674,-0.467,-0.467,0,0,-0.4731,-0.4741,-0.4727,-0.4724,-0.4728,-0.4717,-0.4716,-0.4693,-0.4694,-0.4689,-0.4687,-0.4682,-0.4674,-0.4674,-0.467,-0.467,0,0,0,-0.4737,-0.4742,-0.4732,-0.4725,-0.472,-0.4717,-0.4715,-0.4695,-0.4691,-0.4687,-0.4681,-0.4674,-0.4674,-0.467,-0.467,-0.4685,0,0,0,-0.4737,-0.4746,-0.4733,-0.4739,-0.472,-0.4707,-0.4718,-0.4693,-0.469,-0.4682,-0.4674,-0.4674,-0.467,-0.467,-0.4685,-0.4691,0,0,0,-0.4744,-0.4746,-0.4744,-0.474,-0.4728,-0.4707,-0.4702,-0.4692,-0.4687,-0.4675,-0.4674,-0.467,-0.467,-0.4684,-0.469,-0.4693,0,0,0,-0.4755,-0.4758,-0.4744,-0.4745,-0.4729,-0.4717,-0.4702,-0.4693,-0.4684,-0.4674,-0.467,-0.467,-0.4684,-0.4689,-0.4692,-0.4697,-0.47,0,0,-0.4764,-0.4759,-0.4759,-0.4746,-0.474,-0.4721,-0.4717,-0.4699,-0.4688,-0.4677,-0.4676,-0.4685,-0.469,-0.4693,-0.4714,-0.4716,0,0,0,-0.4766,-0.4766,-0.4762,-0.4754,-0.4741,-0.473,-0.4712,-0.4705,-0.4695,-0.4684,-0.4687,-0.4689,-0.469,-0.4692,-0.4694,-0.4695,-0.4671,-0.4671,-0.4671,-0.4793,-0.478,-0.4779,-0.4762,-0.4755,-0.4737,-0.473,-0.4718,-0.4706,-0.4707,-0.4703,-0.4718,-0.472,-0.4722,-0.4722,-0.4705,-0.4705,-0.4705,-0.4705,-0.4806,-0.4804,-0.4788,-0.4782,-0.4768,-0.4762,-0.4744,-0.4736,-0.4729,-0.4719,-0.4719,-0.471,-0.4725,-0.4725,-0.4706,-0.4706,-0.4705,-0.4705,-0.4705,-0.4822,-0.4819,-0.4811,-0.4799,-0.4792,-0.4775,-0.4769,-0.4756,-0.4743,-0.4744,-0.4739,-0.4739,-0.4737,-0.4743,-0.4743,-0.4743,-0.4743,-0.4743,-0.4743,-0.4843,-0.4833,-0.483,-0.4816,-0.481,-0.48,-0.4782,-0.4775,-0.4765,-0.4756,-0.4756,-0.4744,-0.4729,-0.4725,-0.4743,-0.4743,-0.4743,-0.4743,-0.4743,-0.486,-0.4854,-0.4848,-0.4842,-0.4826,-0.4819,-0.4803,-0.4791,-0.4783,-0.4781,-0.4769,-0.476,-0.4754,-0.4752,-0.4749,-0.4772,-0.4772,-0.4772,-0.4772,-0.4874,-0.4869,-0.4861,-0.4852,-0.4842,-0.4827,-0.4821,-0.4807,-0.4792,-0.4786,-0.4781,-0.4776,-0.4775,-0.4769,-0.4767,-0.4764,-0.4791,-0.4791,-0.4791,-0.4883,-0.4878,-0.4875,-0.486,-0.4847,-0.4835,-0.4829,-0.482,-0.4801,-0.4791,-0.4782,-0.4781,-0.4773,-0.4771,-0.476,-0.4757,-0.4751,0,0]}]]